Location: アルンシュタイン
(50.0000°N, 10.0000°E)
Time: 15:27:56
(UTC+02:00)

Vanguard 1 - Pass Details

Date: 13 September 2024
Orbit: 649 x 3825 km, 34.3° (Epoch: 02 October)

Event Time Altitude Azimuth Distance (km) Brightness Sun altitude
Rises 14:40:29 0° 228° (SW) 5,474 14.7 40.1°
Reaches altitude 10° 14:45:55 10° 214° (SW) 3,831 14.3 39.7°
Maximum altitude 14:51:43 19° 175° (S) 2,551 13.2 39.2°
Drops below altitude 10° 14:55:59 10° 132° (SE) 2,674 12.5 38.9°
Sets 14:58:53 0° 113° (ESE) 3,339 12.7 38.6°
